User: anonymous   Login
Location: Unspecified
(0.0000°N, 0.0000°E)
Time: 12:22:58
(UTC+00:00)
Language:

AEHF 2 (USA 235) - Orbit

View from above orbital plane
View from above orbital plane
View from above satellite
View from above satellite

Ground track
Ground track

The orbit data is extracted from the following two-line orbital elements,

1 38254U 12019A   17135.46765625 0.00000000  00000-0  00000-0 0    06
2 38254   1.6845 344.0976 0003841  81.5982 278.4660  0.99978017    03
Epoch (UTC): 15 May 2017 11:13:25
Eccentricity: 0.0003841
inclination: 1.6845°
perigee height: 35852 km
apogee height: 35885 km
right ascension of ascending node: 344.0976°
argument of perigee: 81.5982°
revolutions per day: 0.99978017
mean anomaly at epoch: 278.4660°
orbit number at epoch: 0

The dashed part of the orbit path shows where the satellite is in the earth's shadow,  

DLR